TimeEDT,TemperatureF,Dew PointF,Humidity,Sea Level PressureIn,VisibilityMPH,Wind Direction,Wind SpeedMPH,Gust SpeedMPH,PrecipitationIn,Events,Conditions,WindDirDegrees,DateUTC
12:53 AM,55.0,48.0,77,30.03,10.0,SE,5.8,-,N/A,,Clear,130,2013-10-12 04:53:00
1:53 AM,55.0,48.9,80,30.03,10.0,SE,8.1,-,N/A,,Clear,130,2013-10-12 05:53:00
2:53 AM,55.0,50.0,83,30.03,10.0,SE,5.8,-,N/A,,Clear,130,2013-10-12 06:53:00
3:53 AM,55.0,51.1,86,30.03,10.0,ESE,9.2,-,N/A,,Clear,120,2013-10-12 07:53:00
4:53 AM,55.0,51.1,86,30.02,10.0,SE,9.2,-,N/A,,Clear,130,2013-10-12 08:53:00
5:53 AM,54.0,51.1,90,30.03,10.0,SE,5.8,-,N/A,,Clear,140,2013-10-12 09:53:00
6:53 AM,53.1,51.1,93,30.04,10.0,SE,6.9,-,N/A,,Clear,130,2013-10-12 10:53:00
7:53 AM,53.1,51.1,93,30.03,8.0,SE,8.1,-,N/A,,Clear,130,2013-10-12 11:53:00
8:53 AM,55.0,52.0,89,30.05,8.0,SE,6.9,-,N/A,,Clear,130,2013-10-12 12:53:00
9:53 AM,60.1,53.1,78,30.05,10.0,SE,9.2,-,N/A,,Clear,140,2013-10-12 13:53:00
10:53 AM,66.0,53.1,63,30.04,10.0,SSE,8.1,-,N/A,,Clear,160,2013-10-12 14:53:00
11:53 AM,71.1,55.0,57,30.03,10.0,South,9.2,-,N/A,,Clear,170,2013-10-12 15:53:00
12:53 PM,75.0,57.0,53,30.02,10.0,SSE,10.4,-,N/A,,Clear,160,2013-10-12 16:53:00
1:53 PM,75.0,55.9,51,30.00,10.0,South,6.9,19.6,N/A,,Clear,180,2013-10-12 17:53:00
2:53 PM,77.0,57.0,50,29.99,10.0,South,9.2,-,N/A,,Partly Cloudy,190,2013-10-12 18:53:00
3:53 PM,75.0,57.0,53,29.99,10.0,South,10.4,-,N/A,,Partly Cloudy,190,2013-10-12 19:53:00
4:53 PM,75.0,57.0,53,29.98,10.0,South,8.1,-,N/A,,Partly Cloudy,190,2013-10-12 20:53:00
5:53 PM,71.1,59.0,66,30.01,10.0,SW,12.7,18.4,N/A,,Overcast,220,2013-10-12 21:53:00
6:53 PM,66.0,62.1,87,30.03,8.0,WNW,5.8,-,N/A,,Overcast,290,2013-10-12 22:53:00
7:37 PM,64.4,64.4,100,30.05,5.0,West,11.5,-,0.03,Rain,Light Rain,260,2013-10-12 23:37:00
7:53 PM,64.0,64.0,100,30.05,4.0,West,8.1,-,0.04,Rain,Light Rain,270,2013-10-12 23:53:00
8:02 PM,64.4,62.6,94,30.05,4.0,West,6.9,-,0.00,,Overcast,270,2013-10-13 00:02:00
8:48 PM,64.4,62.6,94,30.07,4.0,West,4.6,-,0.00,,Overcast,270,2013-10-13 00:48:00
8:53 PM,63.0,63.0,100,30.07,3.0,West,5.8,-,0.00,,Overcast,270,2013-10-13 00:53:00
9:53 PM,63.0,63.0,100,30.09,4.0,West,5.8,-,N/A,,Overcast,280,2013-10-13 01:53:00
10:53 PM,62.1,60.1,93,30.11,7.0,WNW,9.2,-,N/A,,Clear,290,2013-10-13 02:53:00
11:53 PM,61.0,48.9,64,30.13,10.0,WNW,8.1,-,N/A,,Clear,300,2013-10-13 03:53:00